Regional Weather Roundup
Issued by NWS Newport/Morehead, NC

Current Version | Previous Version | Graphics & Text | Print | Product List | Glossary On
Versions: 1 2 3 4 5 6 7 8 9 10 11 12 13 14 15 16 17 18 19 20 21 22 23 24 25 26 27 28 29 30 31 32 33 34 35 36 37 38 39 40 41 42 43 44 45 46 47 48 49 50
000 ASUS42 KMHX 231114 RWRMHX WEATHER ROUNDUP FOR EASTERN NORTH CAROLINA NATIONAL WEATHER SERVICE NEWPORT/MOREHEAD CITY NC 600 AM EST THU NOV 23 2017 NOTE: "FAIR" INDICATES FEW OR NO CLOUDS BELOW 12,000 FEET WITH NO SIGNIFICANT WEATHER AND/OR OBSTRUCTIONS TO VISIBILITY NCZ015>017-031-032-045>047-102-103-231200- NORTH COAST CITY SKY/WX TMP DP RH WIND PRES REMARKS EDENTON PTCLDY 37 32 84 CALM 30.15R ELIZABETH CITY PTCLDY 39 33 79 NW13 30.13S KITTY HAWK CLOUDY 46 36 66 CALM 30.10R MANTEO MOCLDY 46 37 70 NE7 30.12R $$ NCZ045>047-081-094-103-104-231200- CENTRAL COAST CITY SKY/WX TMP DP RH WIND PRES REMARKS FRISCO CLOUDY 51 42 71 NE9 30.09S $$ NCZ095-097-098-100-101-231200- SOUTHERN COAST CITY SKY/WX TMP DP RH WIND PRES REMARKS BEAUFORT CLOUDY 45 39 79 NE8 30.11R CEDAR ISLAND NOT AVBL JACKSONVILLE CLOUDY 41 35 79 N7 30.11F PINEY ISLAND NOT AVBL WILMINGTON CLOUDY 43 34 70 NE12 30.11S $$ NCZ011>013-027>030-043-044-078>080-089-090>093-098-231200- COASTAL PLAIN CITY SKY/WX TMP DP RH WIND PRES REMARKS AHOSKIE CLOUDY 34 26 74 CALM 30.17R CLINTON MOCLDY 41 32 69 NE3 30.13S ELIZABETHTOWN NOT AVBL GOLDSBORO CLOUDY 39 28 66 N7 30.13S GREENVILLE PTCLDY 36 30 80 N3 30.16S HAVELOCK NOT AVBL KENANSVILLE CLOUDY 39 32 75 CALM 30.13F KINSTON PTCLDY 37 31 78 N6 30.14F NEW BERN PTCLDY 39 34 82 N8 30.14R RICHLANDS CLOUDY 39 32 76 VRB6 30.13S ROCKY MOUNT PTCLDY 34 30 85 NE6 30.16S WASHINGTON PTCLDY 36 30 81 N5 30.15S WHITEVILLE CLOUDY 43 33 66 NE6 30.11S $$ AMZ130-135-150-152-154-156-158-170-250-252-270-ANZ085-086-088-633-658-670-231200- MARINE OBSERVATIONS STATION/POSITION TIME TEMP WIND PRES WAVE SWELL AIR SEA DIR/SP/G HT/PER HT/PER (UTC) (F) (DEG/KT/KT) (MB) (FT/S) (FT/S) CHESAPEAKE LIGHT NOT AVBL 64 E VA BEACH 1050 47 61 350/ 14/ 17 1019.8 7/10 7/10 DUCK 1042 47 59 20/ 15/ 18 1019.3 2 E DUCK 1100 60 N/A 5/ 9 2/11 OREGON INLET 1042 49 59 10/ 10/ 12 1019.2 13E OREGON INLT 1048 63 N/A 6/ 9 5/ 9 HATTERAS CG 1042 51 59 20/ 13/ 18 1018.8 DIAMOND BUOY 1100 56 71 10/ 16/ 21 1018.7 CAPE LOOKOUT 1100 20/ 12/ 14 1019.5 BEAUFORT LAB 1042 46 59 10/ 9/ 12 1019.3 30 SE NEW RVR IN 1008 54 67 60/ 16/ 21 1018.7 30 SE NEW RVR IN 1100 67 N/A 7/ 9 2/11 27 SE WRIGHTSVLE 1008 56 69 70/ 19/ 29 1018.5 5 SE WRIGHTSVLE 1008 51 63 40/ 16/ 21 1018.7 225 S CAPE HAT 1050 71 76 40/ 17/ 21 1014.2 7/ 9 5/ 9 41 SE CHARLESTON 1100 64 75 30/ 17/ 21 1016.0 $$

USA.gov is the U.S. government's official web portal to all federal, state and local government web resources and services.